[[{"header":{"parameterUnit":"m.s-1","parameterCategory":1,"la1":30.2992,"la2":30.254,"lo1":-89.0895,"lo2":-89.0443,"dy":0.0025,"dx":0.0025,"nx":19,"ny":19,"refTime":"2026-05-17T09:00:00:Z","depth":0,"parameterNumber":2,"parameterNumberName":"U-component_of_WINDS"},"data":[0,0,0,-3.839,-3.8391,-3.8429,-3.8429,-3.8493,-3.8494,0,0,0,0,0,0,0,0,0,0,0,-3.8387,-3.8388,-3.839,-3.8391,-3.8429,-3.8429,-3.8493,-3.8494,0,0,0,0,0,0,0,0,0,0,0,-3.8387,-3.8388,-3.8389,-3.8391,-3.8429,-3.8429,-3.8493,-3.8459,0,0,0,0,0,0,0,0,0,0,-3.8419,-3.8425,-3.8388,-3.8389,-3.8391,-3.8429,-3.8429,-3.8457,-3.8461,-3.8482,0,-3.8504,0,-3.85,-3.8499,-3.8499,0,0,0,-3.8384,-3.8422,-3.8424,-3.8389,-3.8392,-3.8429,-3.841,-3.8459,-3.8463,-3.8488,-3.8505,-3.8507,-3.8501,-3.85,-3.85,-3.8647,-3.8648,0,0,-3.8382,-3.8399,-3.8421,-3.8428,-3.8423,-3.8409,-3.8411,-3.8461,-3.8481,-3.8505,-3.8508,-3.8502,-3.85,-3.8501,-3.8646,-3.8647,0,0,0,-3.838,-3.8398,-3.8398,-3.8426,-3.8431,-3.841,-3.8413,-3.8478,-3.8477,-3.8508,-3.8503,-3.8501,-3.8502,-3.8645,-3.8647,-3.8712,0,0,0,-3.8379,-3.8397,-3.8398,-3.8409,-3.8431,-3.8455,-3.8429,-3.8474,-3.8479,-3.8503,-3.8501,-3.8502,-3.8644,-3.8646,-3.8708,-3.874,0,0,0,-3.8382,-3.8397,-3.8406,-3.841,-3.8427,-3.8454,-3.8456,-3.8474,-3.8476,-3.85,-3.8503,-3.8643,-3.8645,-3.8704,-3.8733,-3.8783,0,0,0,-3.839,-3.8463,-3.8407,-3.8488,-3.8427,-3.8495,-3.8455,-3.8505,-3.8533,-3.8501,-3.8644,-3.8646,-3.8703,-3.873,-3.8779,-3.8827,-3.8849,0,0,-3.8492,-3.8476,-3.8522,-3.8473,-3.8556,-3.8488,-3.858,-3.859,-3.8576,-3.8624,-3.8628,-3.8709,-3.8733,-3.8782,-3.8967,-3.8984,0,0,0,-3.8561,-3.8594,-3.8612,-3.864,-3.8649,-3.866,-3.8654,-3.8657,-3.8697,-3.8605,-3.8741,-3.8754,-3.8782,-3.8804,-3.8819,-3.8842,-3.8658,-3.8657,-3.8657,-3.8729,-3.8709,-3.8783,-3.8768,-3.8796,-3.8789,-3.8809,-3.8813,-3.8784,-3.8817,-3.8831,-3.8945,-3.8972,-3.8983,-3.9007,-3.8855,-3.8856,-3.8856,-3.8856,-3.8876,-3.892,-3.8881,-3.8939,-3.8918,-3.8966,-3.8964,-3.8942,-3.8984,-3.8933,-3.8957,-3.8902,-3.9002,-3.9022,-3.8861,-3.886,-3.8859,-3.8859,-3.8859,-3.8983,-3.9,-3.9004,-3.9043,-3.9075,-3.9057,-3.91,-3.9079,-3.9059,-3.9083,-3.9095,-3.9094,-3.9089,-3.9091,-3.9091,-3.9091,-3.9092,-3.9092,-3.9092,-3.9092,-3.9094,-3.9132,-3.915,-3.9165,-3.9183,-3.9179,-3.9193,-3.9204,-3.9185,-3.9185,-3.9153,-3.9017,-3.8982,-3.9098,-3.9097,-3.9096,-3.9096,-3.9095,-3.9246,-3.9208,-3.9268,-3.9283,-3.9302,-3.9336,-3.9309,-3.9341,-3.935,-3.9372,-3.9336,-3.9239,-3.9221,-3.9209,-3.918,-3.934,-3.934,-3.934,-3.934,-3.9336,-3.9325,-3.9381,-3.9408,-3.9431,-3.9414,-3.9482,-3.948,-3.9472,-3.9476,-3.945,-3.9411,-3.94,-3.9388,-3.9372,-3.9345,-3.9544,-3.9544,-3.9544,-3.9429,-3.942,-3.9482,-3.9473,-3.9487,-3.95,-3.9563,-3.9595,-3.9578,-3.9552,-3.9479,-3.9471,-3.9407,-3.9387,-3.9357,-3.9333,-3.9282,0,0]},{"header":{"parameterUnit":"m.s-1","parameterCategory":1,"la1":30.2992,"la2":30.254,"lo1":-89.0895,"lo2":-89.0443,"dy":0.0025,"dx":0.0025,"nx":19,"ny":19,"refTime":"2026-05-17T09:00:00:Z","depth":0,"parameterNumber":3,"parameterNumberName":"V-component_of_WINDS"},"data":[0,0,0,4.4188,4.4189,4.4227,4.4227,4.4275,4.4276,0,0,0,0,0,0,0,0,0,0,0,4.4177,4.4177,4.4188,4.4189,4.4227,4.4227,4.4275,4.4276,0,0,0,0,0,0,0,0,0,0,0,4.4176,4.4177,4.4177,4.4189,4.4227,4.4227,4.4275,4.4246,0,0,0,0,0,0,0,0,0,0,4.4209,4.4198,4.4177,4.4177,4.4189,4.4227,4.4227,4.4245,4.4248,4.4258,0,4.4266,0,4.4272,4.4279,4.4279,0,0,0,4.4189,4.4196,4.4207,4.4177,4.419,4.4227,4.421,4.4247,4.425,4.4262,4.4267,4.4269,4.4273,4.4279,4.4279,4.4337,4.4337,0,0,4.4187,4.4183,4.4204,4.4209,4.4204,4.4209,4.4211,4.4249,4.4254,4.4267,4.427,4.4274,4.428,4.428,4.4337,4.4337,0,0,0,4.4181,4.4181,4.4191,4.4207,4.4214,4.421,4.4213,4.4252,4.4256,4.4271,4.4274,4.428,4.428,4.4336,4.4337,4.4347,0,0,0,4.418,4.4178,4.419,4.4188,4.4213,4.4234,4.4215,4.4253,4.4258,4.4274,4.428,4.4281,4.4336,4.4337,4.4346,4.4352,0,0,0,4.4174,4.4177,4.4183,4.4188,4.4205,4.4233,4.4239,4.4254,4.426,4.4279,4.4281,4.4336,4.4336,4.4345,4.4351,4.4367,0,0,0,4.4167,4.419,4.4183,4.4211,4.4204,4.424,4.4239,4.4265,4.4283,4.428,4.4336,4.4337,4.4345,4.435,4.4366,4.4379,4.4385,0,0,4.4194,4.4193,4.421,4.4205,4.4241,4.4234,4.4272,4.4291,4.4296,4.4323,4.4324,4.4347,4.4351,4.4367,4.4417,4.4421,0,0,0,4.4217,4.4229,4.424,4.4257,4.4274,4.4288,4.4303,4.431,4.4334,4.4309,4.4357,4.436,4.4369,4.4376,4.4379,4.4388,4.434,4.434,4.434,4.4249,4.4256,4.4285,4.4296,4.4314,4.4329,4.4344,4.4356,4.4356,4.4368,4.4376,4.4405,4.4413,4.4416,4.4425,4.4384,4.4384,4.4384,4.4384,4.4289,4.4308,4.431,4.4339,4.4346,4.437,4.4387,4.4387,4.441,4.4399,4.4408,4.4396,4.442,4.4428,4.4385,4.4384,4.4384,4.4384,4.4384,4.431,4.4321,4.4331,4.4359,4.4379,4.4391,4.4414,4.4419,4.4424,4.4433,4.4442,4.4442,4.4442,4.4437,4.4437,4.4437,4.4437,4.4437,4.4437,4.4328,4.4339,4.4359,4.438,4.4394,4.4412,4.443,4.4442,4.4458,4.446,4.446,4.4459,4.4422,4.4412,4.4439,4.4439,4.4438,4.4438,4.4438,4.4366,4.4359,4.4388,4.4402,4.4429,4.445,4.4457,4.4484,4.4495,4.4507,4.4505,4.4477,4.4475,4.4473,4.4464,4.4504,4.4504,4.4504,4.4504,4.4383,4.4384,4.4417,4.4439,4.446,4.4471,4.4505,4.452,4.4534,4.4542,4.4537,4.4527,4.4524,4.4525,4.4521,4.4513,4.4564,4.4564,4.4564,4.4407,4.4411,4.4439,4.4454,4.4476,4.4495,4.4527,4.4552,4.4566,4.4567,4.4548,4.4545,4.4529,4.4524,4.4522,4.4516,4.4502,0,0]}]]